Orbital Elements at Epoch 2459000.5 (2020-May-31.0) TDB
Reference: JPL 9 (heliocentric ecliptic J2000)
Element | Value | Uncertainty (1-sigma) | Units |
e | .2291034210364359 | 7.4522e-08 | |
a | 2.612739795635796 | 2.5707e-08 | au |
q | 2.014152170177597 | 1.942e-07 | au |
i | 12.41728875740008 | 7.6712e-06 | deg |
node | 173.54806643 | 3.2904e-05 | deg |
peri | 62.54131605904559 | 3.7619e-05 | deg |
M | 187.0974435912641 | 1.8532e-05 | deg |
tp | 2459741.369269250931 (2022-Jun-10.86926925) | 8.2526e-05 | TDB |
period | 1542.562137137144 4.22 | 2.2766e-05 6.233e-08 | d yr |
n | .2333779569282877 | 3.4443e-09 | deg/d |
Q | 3.211327421093995 | 3.1596e-08 | au |
|
| | Orbit Determination Parameters
Additional Information
|